[[{"header":{"parameterUnit":"m.s-1","parameterCategory":1,"la1":30.2991,"la2":30.254,"lo1":-89.0895,"lo2":-89.0444,"dy":0.0017,"dx":0.0017,"nx":28,"ny":28,"refTime":"2024-11-30T03:00:00:Z","depth":0,"parameterNumber":2,"parameterNumberName":"U-component_of_WINDS"},"data":[0,0,0,0,0,0,0,0,0,0,0,0,0,0,0,0,0,0,0,0,0,0,0,0,0,0,0,0,0,0,0,0,0,0,0,0,0,0,0,0,0,0,0,0,0,0,0,0,0,0,0,0,0,0,0,0,0,0,-1.5708,-1.5709,0,-1.5753,-1.5754,-1.5754,-1.577,-1.577,-1.5769,-1.5769,-1.5813,-1.5814,-1.5816,0,0,0,0,0,0,0,0,0,0,0,0,0,-1.5632,-1.5633,-1.5708,-1.5709,-1.5709,-1.5753,-1.5754,-1.5754,-1.577,-1.577,-1.5769,-1.5769,-1.5813,-1.5814,-1.5816,0,0,0,0,0,0,0,0,0,0,0,0,0,-1.567,-1.5634,-1.5708,-1.5722,-1.5724,-1.5753,-1.5754,-1.5755,-1.577,-1.577,-1.5769,-1.5769,-1.5812,-1.5814,-1.5816,-1.5833,0,0,-1.5822,-1.5823,0,0,0,0,0,0,0,0,-1.5667,-1.5672,-1.572,-1.5721,-1.5723,-1.5756,-1.5743,-1.5781,-1.577,-1.5752,-1.5769,-1.5769,-1.5794,-1.5798,-1.5806,-1.5836,-1.5837,-1.5822,-1.5824,-1.5824,-1.5825,0,0,0,0,0,0,0,-1.5665,-1.5671,-1.5726,-1.572,-1.5723,-1.5725,-1.573,-1.575,-1.5774,-1.5754,-1.5755,-1.576,-1.5795,-1.5805,-1.5808,-1.5838,-1.5822,-1.5824,-1.5825,-1.5826,-1.588,-1.588,0,0,0,0,0,0,-1.566,-1.5668,-1.5725,-1.5727,-1.5694,-1.5727,-1.5732,-1.5746,-1.5774,-1.5778,-1.5761,-1.5761,-1.5801,-1.5805,-1.5809,-1.583,-1.5824,-1.5826,-1.5827,-1.588,-1.588,-1.5881,0,0,0,0,0,0,-1.5659,-1.5665,-1.5723,-1.5698,-1.5706,-1.5728,-1.5743,-1.5747,-1.5756,-1.5779,-1.5783,-1.5766,-1.5801,-1.5806,-1.5827,-1.5831,-1.5827,-1.5829,-1.588,-1.588,-1.588,-1.5872,0,0,0,0,0,0,-1.5656,-1.5664,-1.5673,-1.5698,-1.5707,-1.5741,-1.5743,-1.5748,-1.576,-1.5761,-1.5785,-1.5789,-1.5801,-1.5824,-1.5829,-1.5834,-1.5831,-1.5879,-1.588,-1.588,-1.5872,-1.5872,-1.5872,0,0,0,0,0,-1.5654,-1.5669,-1.5673,-1.568,-1.5718,-1.5741,-1.5746,-1.5761,-1.576,-1.5767,-1.5781,-1.5788,-1.583,-1.5826,-1.5831,-1.5837,-1.5879,-1.588,-1.588,-1.5872,-1.5872,-1.5872,0,0,0,0,0,0,-1.5643,-1.5672,-1.5678,-1.5702,-1.5719,-1.5744,-1.5754,-1.5761,-1.5778,-1.5778,-1.5795,-1.58,-1.5818,-1.583,-1.5825,-1.5854,-1.5855,-1.5856,-1.5846,-1.5846,-1.5846,-1.5843,-1.5832,0,0,0,0,0,-1.5643,-1.5661,-1.5685,-1.5704,-1.5712,-1.5731,-1.5742,-1.5752,-1.577,-1.5777,-1.5793,-1.581,-1.5826,-1.5837,-1.5854,-1.5873,-1.5877,-1.588,-1.588,-1.588,-1.5881,-1.589,-1.589,-1.5882,-1.5882,-1.5882,0,0,-1.5645,-1.5663,-1.5673,-1.5702,-1.5717,-1.5733,-1.5738,-1.5755,-1.5767,-1.578,-1.58,-1.5811,-1.5831,-1.585,-1.5859,-1.586,-1.5884,-1.588,-1.588,-1.5881,-1.589,-1.5891,-1.5892,-1.5883,-1.5883,-1.5883,0,0,-1.5655,-1.5671,-1.5687,-1.5701,-1.5723,-1.5735,-1.5738,-1.5762,-1.577,-1.5791,-1.58,-1.5813,-1.5842,-1.5855,-1.5865,-1.5877,-1.5883,-1.5881,-1.5882,-1.589,-1.5891,-1.5891,-1.5894,-1.5895,-1.5883,-1.5883,-1.5883,0,-1.5653,-1.568,-1.5695,-1.5711,-1.5723,-1.5734,-1.575,-1.5762,-1.5788,-1.5795,-1.5796,-1.583,-1.5845,-1.5866,-1.5868,-1.5877,-1.588,-1.5879,-1.5889,-1.589,-1.5891,-1.5894,-1.5895,-1.5882,-1.5882,-1.5882,-1.5882,0,-1.5675,-1.5693,-1.5703,-1.5728,-1.574,-1.5756,-1.5772,-1.5783,-1.579,-1.5801,-1.582,-1.5837,-1.5856,-1.5862,-1.587,-1.5884,-1.5883,-1.5886,-1.5887,-1.5891,-1.5894,-1.5895,-1.5882,-1.5882,-1.5882,-1.5882,0,0,-1.5682,-1.5713,-1.5716,-1.5726,-1.5749,-1.5763,-1.5777,-1.5796,-1.5804,-1.5821,-1.5833,-1.5856,-1.5858,-1.5869,-1.5878,-1.5886,-1.5891,-1.5888,-1.5888,-1.5887,-1.5905,-1.5902,-1.5903,-1.5895,-1.5895,-1.5896,-1.5903,0,-1.5694,-1.5723,-1.5736,-1.5758,-1.5773,-1.5783,-1.5796,-1.581,-1.5821,-1.5834,-1.5845,-1.586,-1.5863,-1.5869,-1.5877,-1.5889,-1.5895,-1.5889,-1.5905,-1.5906,-1.59,-1.5905,-1.5903,-1.5909,-1.5904,-1.5905,-1.5905,0,-1.5713,-1.5729,-1.5753,-1.5772,-1.5779,-1.579,-1.5807,-1.582,-1.5836,-1.5843,-1.5854,-1.5862,-1.5876,-1.5876,-1.5895,-1.589,-1.5897,-1.5904,-1.5904,-1.5906,-1.5905,-1.5906,-1.5912,-1.5913,-1.5907,-1.5907,-1.5907,0,-1.5714,-1.5741,-1.5758,-1.5767,-1.579,-1.5797,-1.5807,-1.5823,-1.5832,-1.5847,-1.5853,-1.5868,-1.5877,-1.5888,-1.5899,-1.5898,-1.5916,-1.5917,-1.5921,-1.592,-1.5924,-1.5924,-1.593,-1.593,-1.593,-1.593,-1.593,0,-1.5726,-1.574,-1.5759,-1.5769,-1.5784,-1.5797,-1.5811,-1.5821,-1.5834,-1.5846,-1.5855,-1.5865,-1.588,-1.5891,-1.59,-1.5913,-1.5917,-1.5922,-1.5924,-1.5921,-1.592,-1.5926,-1.5925,-1.593,-1.593,-1.593,-1.593,0,-1.5729,-1.5743,-1.5762,-1.5781,-1.5786,-1.5796,-1.5812,-1.5822,-1.5832,-1.5846,-1.585,-1.5865,-1.5879,-1.5891,-1.591,-1.5915,-1.5928,-1.5931,-1.5923,-1.5924,-1.5927,-1.5926,-1.5937,-1.5939,-1.5937,-1.5937,-1.5937,0,-1.5736,-1.5747,-1.5767,-1.5775,-1.5785,-1.5798,-1.5808,-1.582,-1.583,-1.5847,-1.5854,-1.5868,-1.5881,-1.5902,-1.5914,-1.5927,-1.593,-1.5933,-1.5932,-1.5928,-1.5929,-1.5928,-1.5928,-1.5933,-1.5933,-1.5933,-1.5933,0,-1.5746,-1.5751,-1.5765,-1.5781,-1.5792,-1.5804,-1.5817,-1.5823,-1.5838,-1.5847,-1.5861,-1.5871,-1.5889,-1.5902,-1.5917,-1.5925,-1.5931,-1.5933,-1.5934,-1.5931,-1.5925,-1.5927,-1.5922,-1.5932,-1.5932,-1.5932,-1.5932,-1.5932,-1.5751,-1.576,-1.5775,-1.5789,-1.58,-1.5811,-1.582,-1.5831,-1.5843,-1.5859,-1.5865,-1.5879,-1.5892,-1.5912,-1.592,-1.593,-1.5931,-1.5933,-1.5934,-1.5934,-1.5933,-1.5924,-1.5933,-1.5933,-1.5933,-1.5933,-1.5933,0,-1.576,-1.5769,-1.5782,-1.58,-1.581,-1.5815,-1.5828,-1.5836,-1.5849,-1.5861,-1.5872,-1.5887,-1.59,-1.5912,-1.5925,-1.593,-1.5933,-1.5933,-1.5933,-1.5934,-1.5932,-1.5929,-1.5931,-1.5931,-1.5931,-1.5931,-1.5931,-1.5931,-1.5766,-1.5781,-1.5787,-1.5807,-1.5816,-1.583,-1.5837,-1.5847,-1.5856,-1.5873,-1.5883,-1.5891,-1.5903,-1.5916,-1.5927,-1.593,-1.5934,-1.5933,-1.5937,-1.5935,-1.5935,-1.5935,-1.5932,-1.5934,-1.5934,-1.5939,-1.5939,-1.5939]},{"header":{"parameterUnit":"m.s-1","parameterCategory":1,"la1":30.2991,"la2":30.254,"lo1":-89.0895,"lo2":-89.0444,"dy":0.0017,"dx":0.0017,"nx":28,"ny":28,"refTime":"2024-11-30T03:00:00:Z","depth":0,"parameterNumber":3,"parameterNumberName":"V-component_of_WINDS"},"data":[0,0,0,0,0,0,0,0,0,0,0,0,0,0,0,0,0,0,0,0,0,0,0,0,0,0,0,0,0,0,0,0,0,0,0,0,0,0,0,0,0,0,0,0,0,0,0,0,0,0,0,0,0,0,0,0,0,0,-1.6018,-1.6018,0,-1.5969,-1.5968,-1.5968,-1.5919,-1.5918,-1.5917,-1.5917,-1.5867,-1.5866,-1.5865,0,0,0,0,0,0,0,0,0,0,0,0,0,-1.6069,-1.6068,-1.6018,-1.6017,-1.6017,-1.5969,-1.5968,-1.5968,-1.5919,-1.5918,-1.5917,-1.5916,-1.5867,-1.5866,-1.5865,0,0,0,0,0,0,0,0,0,0,0,0,0,-1.6036,-1.6068,-1.6018,-1.5987,-1.5983,-1.5969,-1.5968,-1.5968,-1.5919,-1.5918,-1.5917,-1.5916,-1.5867,-1.5866,-1.5865,-1.5879,0,0,-1.5862,-1.5861,0,0,0,0,0,0,0,0,-1.6038,-1.6034,-1.5992,-1.5989,-1.5985,-1.5949,-1.5968,-1.5938,-1.5919,-1.5943,-1.5917,-1.5915,-1.5895,-1.5892,-1.5884,-1.5876,-1.5874,-1.5862,-1.5861,-1.5861,-1.586,0,0,0,0,0,0,0,-1.604,-1.6036,-1.5999,-1.5991,-1.5987,-1.5975,-1.5969,-1.5962,-1.5925,-1.5941,-1.5937,-1.5932,-1.5893,-1.5886,-1.5883,-1.5873,-1.5862,-1.5861,-1.586,-1.586,-1.5871,-1.5872,0,0,0,0,0,0,-1.6047,-1.6038,-1.6,-1.5997,-1.6009,-1.5975,-1.5968,-1.5961,-1.5925,-1.5919,-1.5933,-1.593,-1.5888,-1.5884,-1.5881,-1.5893,-1.5861,-1.586,-1.5859,-1.587,-1.5872,-1.5873,0,0,0,0,0,0,-1.6048,-1.6044,-1.6002,-1.6017,-1.601,-1.5975,-1.5968,-1.5961,-1.5954,-1.5919,-1.5912,-1.5933,-1.5887,-1.5883,-1.5879,-1.589,-1.5859,-1.5858,-1.5869,-1.5871,-1.5872,-1.5917,0,0,0,0,0,0,-1.605,-1.6045,-1.605,-1.6017,-1.601,-1.6001,-1.5968,-1.5961,-1.5952,-1.5948,-1.5917,-1.5911,-1.5886,-1.5881,-1.5878,-1.5888,-1.5857,-1.5868,-1.587,-1.5872,-1.5914,-1.592,-1.5924,0,0,0,0,0,-1.6052,-1.6065,-1.605,-1.6046,-1.6015,-1.6002,-1.5998,-1.5969,-1.5953,-1.5957,-1.5935,-1.5912,-1.589,-1.5881,-1.5877,-1.5887,-1.5867,-1.5869,-1.5871,-1.5912,-1.5919,-1.5924,0,0,0,0,0,0,-1.6101,-1.606,-1.6044,-1.6046,-1.6028,-1.5994,-1.5998,-1.5977,-1.5963,-1.5959,-1.5924,-1.5918,-1.5918,-1.5902,-1.5893,-1.5897,-1.5875,-1.5877,-1.5907,-1.5913,-1.5918,-1.5921,-1.5857,0,0,0,0,0,-1.6112,-1.6104,-1.607,-1.6075,-1.6067,-1.6034,-1.6028,-1.6007,-1.5986,-1.5978,-1.5956,-1.5937,-1.5925,-1.5919,-1.5906,-1.5912,-1.5904,-1.5917,-1.5922,-1.5927,-1.5928,-1.5928,-1.5933,-1.588,-1.588,-1.5879,0,0,-1.6134,-1.6111,-1.6109,-1.6084,-1.6068,-1.606,-1.6028,-1.6022,-1.6017,-1.5978,-1.5972,-1.5955,-1.5932,-1.5932,-1.5932,-1.5919,-1.5941,-1.5929,-1.5933,-1.5932,-1.5931,-1.5936,-1.594,-1.5881,-1.5881,-1.588,0,0,-1.6171,-1.6154,-1.6156,-1.614,-1.6114,-1.6093,-1.6093,-1.6062,-1.6049,-1.6043,-1.6013,-1.6006,-1.5987,-1.5971,-1.5961,-1.5991,-1.5968,-1.5988,-1.6014,-1.6014,-1.6019,-1.6022,-1.6031,-1.6035,-1.599,-1.599,-1.599,0,-1.6202,-1.6191,-1.616,-1.6155,-1.6145,-1.6109,-1.611,-1.6096,-1.6068,-1.6062,-1.6049,-1.6023,-1.6005,-1.6001,-1.6008,-1.6001,-1.6,-1.5991,-1.6021,-1.6024,-1.6027,-1.6035,-1.6039,-1.5992,-1.5992,-1.5992,-1.5991,0,-1.6229,-1.6222,-1.6226,-1.62,-1.619,-1.6189,-1.6157,-1.6151,-1.6131,-1.611,-1.6104,-1.6081,-1.6062,-1.606,-1.6041,-1.6052,-1.6045,-1.6027,-1.6004,-1.6035,-1.6042,-1.6045,-1.5996,-1.5995,-1.5994,-1.5993,0,0,-1.6295,-1.6251,-1.6253,-1.624,-1.6209,-1.6203,-1.6199,-1.6181,-1.6175,-1.6158,-1.6153,-1.6138,-1.612,-1.6108,-1.6087,-1.6088,-1.6111,-1.6069,-1.6068,-1.6076,-1.612,-1.6133,-1.6137,-1.6096,-1.6097,-1.6097,-1.6122,0,-1.6326,-1.6317,-1.6289,-1.6289,-1.628,-1.6246,-1.6242,-1.6223,-1.6204,-1.6194,-1.6172,-1.6161,-1.614,-1.6132,-1.6131,-1.6108,-1.6119,-1.6106,-1.609,-1.609,-1.6096,-1.6141,-1.6155,-1.618,-1.6124,-1.6125,-1.6125,0,-1.636,-1.6344,-1.6343,-1.6311,-1.6307,-1.6304,-1.6284,-1.6275,-1.6252,-1.6238,-1.6224,-1.62,-1.6194,-1.6173,-1.6163,-1.6155,-1.6147,-1.6135,-1.6135,-1.6131,-1.6109,-1.6138,-1.6187,-1.619,-1.613,-1.6129,-1.6129,0,-1.6407,-1.6384,-1.638,-1.637,-1.6334,-1.6333,-1.6317,-1.6293,-1.6284,-1.6267,-1.626,-1.6242,-1.6233,-1.6219,-1.6191,-1.6179,-1.6184,-1.6161,-1.6171,-1.6171,-1.6172,-1.6172,-1.622,-1.617,-1.617,-1.617,-1.617,0,-1.6443,-1.6443,-1.64,-1.6398,-1.6396,-1.6364,-1.6364,-1.6345,-1.6324,-1.6316,-1.6286,-1.628,-1.6243,-1.6233,-1.6211,-1.6205,-1.6201,-1.6189,-1.6182,-1.619,-1.6192,-1.6184,-1.6181,-1.6171,-1.617,-1.617,-1.617,0,-1.6494,-1.6465,-1.6458,-1.6424,-1.6415,-1.6416,-1.6386,-1.6382,-1.6361,-1.6352,-1.6348,-1.6314,-1.63,-1.6271,-1.6249,-1.6234,-1.6232,-1.6223,-1.624,-1.6236,-1.6247,-1.6246,-1.6289,-1.6293,-1.6242,-1.6243,-1.6243,0,-1.6518,-1.6517,-1.6483,-1.6475,-1.6461,-1.645,-1.644,-1.6408,-1.6398,-1.6371,-1.637,-1.6354,-1.6338,-1.6317,-1.629,-1.6273,-1.6262,-1.6278,-1.6259,-1.6266,-1.626,-1.626,-1.6259,-1.6282,-1.6283,-1.6283,-1.6284,0,-1.6564,-1.6549,-1.6536,-1.6517,-1.6505,-1.6489,-1.6471,-1.6467,-1.643,-1.6421,-1.6406,-1.6394,-1.6371,-1.6355,-1.6333,-1.6317,-1.6294,-1.629,-1.6291,-1.6299,-1.6308,-1.6301,-1.625,-1.6289,-1.6289,-1.6288,-1.6288,-1.6288,-1.6601,-1.6598,-1.6573,-1.6558,-1.6541,-1.6525,-1.6519,-1.6496,-1.6483,-1.6461,-1.6443,-1.643,-1.6405,-1.6374,-1.6359,-1.6347,-1.6336,-1.6338,-1.6339,-1.6339,-1.6342,-1.6311,-1.6344,-1.6344,-1.6343,-1.6343,-1.6343,0,-1.6643,-1.6625,-1.6612,-1.6588,-1.6576,-1.6556,-1.6535,-1.6526,-1.6514,-1.6494,-1.6479,-1.6461,-1.6444,-1.6416,-1.6397,-1.6393,-1.6382,-1.6389,-1.6388,-1.6385,-1.6354,-1.6354,-1.6398,-1.6398,-1.6398,-1.6398,-1.6398,-1.6398,-1.6664,-1.6657,-1.664,-1.6624,-1.6606,-1.6592,-1.6581,-1.6566,-1.6549,-1.653,-1.6516,-1.6498,-1.6474,-1.6453,-1.6437,-1.6429,-1.6422,-1.6433,-1.6421,-1.6392,-1.6387,-1.6382,-1.6382,-1.6432,-1.6432,-1.6453,-1.6453,-1.6453]}]]